| time (UTC) | temp F | wind direction | speed knots | gust knots | rain 1hr in | rain 24hr in | rain mn in | humidity % | barometer mb |
| 20260906121519 | 78 | 89 | 1.7 | 3.5 | 0.00 | 0.00 | 0.00 | 86 | 1010.3 |
| 20260906120054 | 77 | 83 | 1.7 | 3.5 | 0.00 | 0.00 | 0.00 | 86 | 1010.2 |
| 20260906114531 | 77 | 76 | 0.9 | 2.6 | 0.00 | 0.00 | 0.00 | 86 | 1010.2 |
| 20260906113005 | 76 | 60 | 0.9 | 2.6 | 0.00 | 0.00 | 0.00 | 89 | 1010.2 |
| 20260906111544 | 76 | 59 | 1.7 | 3.5 | 0.00 | 0.00 | 0.00 | 91 | 1009.9 |
| 20260906110013 | 76 | 55 | 1.7 | 4.3 | 0.00 | 0.00 | 0.00 | 92 | 1009.8 |
| 20260906104609 | 76 | 34 | 0.0 | 0.0 | 0.00 | 0.00 | 0.00 | 93 | 1009.6 |
| 20260906103033 | 76 | 26 | 0.0 | 0.0 | 0.00 | 0.00 | 0.00 | 93 | 1009.5 |
| 20260906101602 | 76 | 41 | 0.0 | 2.6 | 0.00 | 0.00 | 0.00 | 93 | 1009.4 |
| 20260906100039 | 77 | 44 | 0.9 | 3.5 | 0.00 | 0.00 | 0.00 | 92 | 1009.4 |
| 20260906094507 | 77 | 17 | 1.7 | 3.5 | 0.00 | 0.00 | 0.00 | 93 | 1009.3 |
| 20260906093058 | 77 | 55 | 0.0 | 0.0 | 0.00 | 0.00 | 0.00 | 92 | 1009.1 |
| 20260906091516 | 77 | 360 | 0.9 | 2.6 | 0.00 | 0.00 | 0.00 | 92 | 1009.2 |
| 20260906090052 | 77 | 138 | 0.0 | 1.7 | 0.00 | 0.00 | 0.00 | 92 | 1009.1 |
| 20260906084530 | 77 | 19 | 0.9 | 3.5 | 0.00 | 0.00 | 0.00 | 92 | 1009.2 |
| 20260906083002 | 77 | 95 | 0.9 | 4.3 | 0.00 | 0.00 | 0.00 | 91 | 1009.1 |
| 20260906081536 | 77 | 13 | 0.0 | 3.5 | 0.00 | 0.00 | 0.00 | 91 | 1009.2 |
| 20260906080008 | 78 | 13 | 2.6 | 6.1 | 0.00 | 0.00 | 0.00 | 90 | 1009.3 |
| 20260906074543 | 78 | 5 | 2.6 | 5.2 | 0.00 | 0.00 | 0.00 | 90 | 1009.2 |
| 20260906073018 | 78 | 51 | 0.0 | 0.0 | 0.00 | 0.00 | 0.00 | 91 | 1009.2 |
| 20260906071544 | 79 | 17 | 0.0 | 0.0 | 0.00 | 0.00 | 0.00 | 91 | 1009.6 |
| 20260906070017 | 79 | 34 | 0.0 | 0.0 | 0.00 | 0.00 | 0.00 | 91 | 1009.6 |
| 20260906064550 | 79 | 355 | 0.0 | 0.0 | 0.00 | 0.00 | 0.00 | 92 | 1010.0 |
| 20260906063025 | 79 | 36 | 0.0 | 0.0 | 0.00 | 0.00 | 0.00 | 92 | 1010.0 |
| 20260906061558 | 80 | 20 | 0.0 | 0.0 | 0.00 | 0.00 | 0.00 | 92 | 1010.0 |
| 20260906060028 | 80 | 36 | 0.0 | 0.0 | 0.00 | 0.00 | 0.00 | 92 | 1010.1 |
| 20260906054607 | 81 | 355 | 0.0 | 0.0 | 0.00 | 0.00 | 0.00 | 92 | 1010.0 |
| 20260906053032 | 81 | 43 | 0.0 | 0.0 | 0.00 | 0.00 | 0.00 | 91 | 1010.1 |
| 20260906051600 | 82 | 355 | 0.0 | 3.5 | 0.00 | 0.00 | 0.00 | 91 | 1010.2 |
| 20260906050033 | 82 | 345 | 1.7 | 5.2 | 0.00 | 0.00 | 0.00 | 91 | 1010.3 |
| 20260906044502 | 82 | 360 | 1.7 | 4.3 | 0.00 | 0.00 | 0.00 | 92 | 1010.4 |
| 20260906043033 | 83 | 32 | 0.0 | 2.6 | 0.00 | 0.00 | 0.00 | 93 | 1010.7 |
| 20260906041507 | 83 | 50 | 0.9 | 3.5 | 0.00 | 0.00 | 0.00 | 93 | 1010.8 |
| 20260906040041 | 83 | 66 | 0.0 | 7.8 | 0.00 | 0.00 | 0.00 | 93 | 1010.6 |
| 20260906034512 | 83 | 281 | 3.5 | 7.8 | 0.00 | 0.00 | 0.00 | 92 | 1010.6 |
| 20260906033101 | 84 | 300 | 4.3 | 11.3 | 0.00 | 0.00 | 0.00 | 92 | 1010.2 |
| 20260906031525 | 83 | 306 | 5.2 | 10.4 | 0.00 | 0.00 | 0.00 | 92 | 1010.4 |
| 20260906030002 | 84 | 312 | 2.6 | 8.7 | 0.00 | 0.00 | 0.00 | 92 | 1010.3 |
| 20260906024542 | 83 | 267 | 3.5 | 8.7 | 0.00 | 0.00 | 0.00 | 92 | 1010.1 |
| 20260906023020 | 84 | 242 | 5.2 | 11.3 | 0.00 | 0.00 | 0.00 | 91 | 1010.0 |
| 20260906021555 | 83 | 276 | 3.5 | 9.6 | 0.00 | 0.00 | 0.00 | 92 | 1009.9 |
| 20260906020032 | 83 | 80 | 0.0 | 0.9 | 0.00 | 0.00 | 0.00 | 92 | 1009.9 |
| 20260906014506 | 83 | 247 | 3.5 | 10.4 | 0.00 | 0.00 | 0.00 | 92 | 1008.5 |
| 20260906013038 | 83 | 278 | 0.0 | 9.6 | 0.00 | 0.00 | 0.00 | 92 | 1008.9 |
| 20260906011509 | 83 | 255 | 1.7 | 10.4 | 0.00 | 0.00 | 0.00 | 91 | 1009.5 |
| 20260906010045 | 83 | 297 | 3.5 | 10.4 | 0.00 | 0.00 | 0.00 | 91 | 1009.9 |
| 20260906004518 | 84 | 287 | 6.1 | 10.4 | 0.00 | 0.00 | 0.00 | 89 | 1010.0 |
| 20260906003058 | 84 | 209 | 7.0 | 10.4 | 0.00 | 0.00 | 0.00 | 89 | 1010.1 |
| 20260906001535 | 84 | 315 | 7.0 | 10.4 | 0.00 | 0.00 | 0.00 | 89 | 1010.3 |
| 20260906000010 | 84 | 259 | 6.1 | 10.4 | 0.00 | 0.00 | 0.00 | 88 | 1010.2 |
| 20260905234602 | 84 | 267 | 6.1 | 10.4 | 0.00 | 0.00 | 0.00 | 88 | 1010.3 |
| 20260905233034 | 85 | 259 | 6.1 | 10.4 | 0.00 | 0.00 | 0.00 | 87 | 1010.2 |
| 20260905231600 | 85 | 271 | 3.5 | 10.4 | 0.00 | 0.00 | 0.00 | 86 | 1010.3 |
| 20260905230046 | 86 | 267 | 2.6 | 9.6 | 0.00 | 0.00 | 0.00 | 86 | 1010.0 |
| 20260905224510 | 88 | 183 | 6.1 | 11.3 | 0.00 | 0.00 | 0.00 | 83 | 1010.0 |
| 20260905223047 | 88 | 298 | 4.3 | 9.6 | 0.00 | 0.00 | 0.00 | 82 | 1009.8 |
| 20260905221532 | 88 | 186 | 2.6 | 9.6 | 0.00 | 0.00 | 0.00 | 83 | 1009.9 |
| 20260905220059 | 89 | 252 | 4.3 | 12.2 | 0.00 | 0.00 | 0.00 | 81 | 1009.8 |
| 20260905214537 | 89 | 313 | 2.6 | 9.6 | 0.00 | 0.00 | 0.00 | 81 | 1009.7 |
| 20260905213007 | 89 | 117 | 4.3 | 9.6 | 0.00 | 0.00 | 0.00 | 80 | 1009.9 |
| 20260905211554 | 90 | 185 | 3.5 | 12.2 | 0.00 | 0.00 | 0.00 | 79 | 1009.6 |
| 20260905210023 | 90 | 240 | 3.5 | 12.2 | 0.00 | 0.00 | 0.00 | 80 | 1009.6 |
| 20260905204500 | 90 | 189 | 4.3 | 8.7 | 0.00 | 0.00 | 0.00 | 81 | 1009.5 |
| 20260905203046 | 90 | 316 | 4.3 | 11.3 | 0.00 | 0.00 | 0.00 | 80 | 1009.2 |
| 20260905201513 | 91 | 278 | 2.6 | 9.6 | 0.00 | 0.00 | 0.00 | 80 | 1009.1 |
| 20260905200059 | 91 | 41 | 3.5 | 12.2 | 0.00 | 0.00 | 0.00 | 80 | 1009.0 |
| 20260905194520 | 91 | 277 | 4.3 | 10.4 | 0.00 | 0.00 | 0.00 | 79 | 1009.3 |
| 20260905193108 | 91 | 81 | 3.5 | 9.6 | 0.00 | 0.00 | 0.00 | 79 | 1009.5 |
| 20260905191525 | 90 | 311 | 3.5 | 9.6 | 0.00 | 0.00 | 0.00 | 80 | 1009.9 |
| 20260905190055 | 88 | 232 | 3.5 | 7.0 | 0.00 | 0.00 | 0.00 | 82 | 1010.4 |
| 20260905184525 | 90 | 74 | 3.5 | 8.7 | 0.00 | 0.00 | 0.00 | 80 | 1010.6 |
| 20260905183101 | 91 | 154 | 2.6 | 10.4 | 0.00 | 0.00 | 0.00 | 78 | 1010.8 |
| 20260905181531 | 91 | 13 | 3.5 | 8.7 | 0.00 | 0.00 | 0.00 | 77 | 1010.8 |
| 20260905180002 | 90 | 40 | 4.3 | 10.4 | 0.00 | 0.00 | 0.00 | 79 | 1011.0 |
| 20260905174531 | 91 | 208 | 3.5 | 8.7 | 0.00 | 0.00 | 0.00 | 78 | 1011.2 |
| 20260905173102 | 91 | 319 | 2.6 | 8.7 | 0.00 | 0.00 | 0.00 | 79 | 1011.5 |
| 20260905171535 | 90 | 240 | 2.6 | 7.8 | 0.00 | 0.00 | 0.00 | 79 | 1011.7 |
| 20260905170004 | 90 | 170 | 2.6 | 7.8 | 0.00 | 0.00 | 0.00 | 81 | 1011.9 |
| 20260905164538 | 90 | 177 | 1.7 | 8.7 | 0.00 | 0.00 | 0.00 | 79 | 1012.0 |
| 20260905163006 | 90 | 221 | 2.6 | 7.0 | 0.00 | 0.00 | 0.00 | 78 | 1012.3 |
| 20260905161535 | 89 | 296 | 3.5 | 6.1 | 0.00 | 0.00 | 0.00 | 74 | 1012.5 |
| 20260905160012 | 88 | 355 | 2.6 | 7.8 | 0.00 | 0.00 | 0.00 | 78 | 1012.6 |
| 20260905154544 | 88 | 190 | 1.7 | 8.7 | 0.00 | 0.00 | 0.00 | 77 | 1012.7 |
| 20260905153001 | 87 | 306 | 2.6 | 7.0 | 0.00 | 0.00 | 0.00 | 79 | 1012.9 |
| 20260905151536 | 87 | 277 | 5.2 | 9.6 | 0.00 | 0.00 | 0.00 | 81 | 1012.9 |
| 20260905150004 | 86 | 319 | 2.6 | 7.8 | 0.00 | 0.00 | 0.00 | 83 | 1013.0 |
| 20260905144538 | 86 | 313 | 2.6 | 10.4 | 0.00 | 0.00 | 0.00 | 83 | 1013.0 |
| 20260905143010 | 85 | 335 | 4.3 | 8.7 | 0.00 | 0.00 | 0.00 | 84 | 1013.2 |
| 20260905141538 | 85 | 292 | 4.3 | 8.7 | 0.00 | 0.00 | 0.00 | 86 | 1013.1 |
| 20260905140005 | 84 | 291 | 3.5 | 5.2 | 0.00 | 0.00 | 0.00 | 88 | 1013.1 |
| 20260905134544 | 83 | 344 | 1.7 | 9.6 | 0.00 | 0.00 | 0.00 | 90 | 1013.2 |
| 20260905133009 | 83 | 324 | 2.6 | 5.2 | 0.00 | 0.00 | 0.00 | 92 | 1013.3 |
| 20260905131543 | 82 | 355 | 2.6 | 5.2 | 0.00 | 0.00 | 0.00 | 92 | 1013.4 |
| 20260905130016 | 82 | 343 | 2.6 | 5.2 | 0.00 | 0.00 | 0.00 | 93 | 1013.4 |
| 20260905124550 | 81 | 344 | 2.6 | 4.3 | 0.00 | 0.00 | 0.00 | 94 | 1013.3 |
| 20260905123025 | 81 | 324 | 1.7 | 4.3 | 0.00 | 0.00 | 0.00 | 95 | 1013.3 |